Location: Krasnoyarskiy Pitomnik
(51.1333°N, 71.6167°E)
Time: 21:57:18
(UTC+00:00)

BlueWalker 3 - Visible Passes

Search period start: 19 January 2026 00:00
Search period end: 29 January 2026 00:00
Orbit: 451 x 463 km, 53.2° (Epoch: 19 January)

Date Brightness Start Highest point End Pass type
(mag) Time Alt. Az. Time Alt. Az. Time Alt. Az.
21 Jan 3.8 14:17:03 10° SSW 14:18:29 20° SSW 14:18:29 20° SSW visible
22 Jan 3.0 13:41:54 10° SSW 13:44:47 26° SSE 13:44:47 26° SSE visible
23 Jan 3.3 13:06:49 10° SSW 13:09:37 22° SE 13:11:01 17° ESE visible
23 Jan 3.9 14:43:10 10° WSW 14:44:46 25° WSW 14:44:46 25° WSW visible
24 Jan 3.6 12:31:49 10° S 12:34:18 18° SE 12:36:46 10° E visible
24 Jan 2.0 14:07:46 10° WSW 14:10:54 62° SSW 14:10:54 62° SSW visible
25 Jan 1.9 13:32:23 10° SW 13:35:53 60° SSE 13:37:00 38° E visible
25 Jan 4.7 15:09:53 10° W 15:10:44 16° W 15:10:44 16° W visible
26 Jan 2.1 12:57:00 10° SW 13:00:28 50° SSE 13:03:02 17° E visible
26 Jan 3.1 14:34:23 10° W 14:36:46 38° WNW 14:36:46 38° WNW visible
27 Jan 1.7 13:58:52 10° W 14:02:27 70° N 14:02:45 65° NNE visible
28 Jan 1.7 13:23:21 10° WSW 13:26:56 77° NNW 13:28:42 28° ENE visible
28 Jan 4.2 15:01:05 10° WNW 15:02:26 21° WNW 15:02:26 21° WNW visible
